Location: *
(48.8489°N, 2.3218°E)
Time: 10:59:41
(UTC+00:00)

Cosmos 1656 - Pass Details

Date: 23 August 2019
Orbit: 797 x 850 km, 71.1° (Epoch: 21 September)

Event Time Altitude Azimuth Distance (km) Brightness Sun altitude
Rises 19:43:16 0° 333° (NNW) 3,424 7.9 -8.6°
Reaches altitude 10° 19:45:48 10° 338° (NNW) 2,481 7.0 -9.0°
Maximum altitude 19:51:24 57° 57° (ENE) 990 3.9 -9.8°
Enters shadow 19:56:24 13° 134° (SE) 2,249 5.3 -10.5°
